743  
SXUS52 KTAE 150616  
OSOTAE  
OSOTAE  
NORTH FLORIDA/SOUTH ALABAMA/SOUTHWEST GEORGIA WEATHER ROUNDUP  
NATIONAL WEATHER SERVICE TALLAHASSEE FLORIDA  
200 AM EDT SUN SEP 15 2019  
 
NOTE: "FAIR" INDICATES FEW OR NO CLOUDS BELOW 12,000 FEET WITH NO  
SIGNIFICANT WEATHER AND/OR OBSTRUCTIONS TO VISIBILITY.  
 
!FLZ017-115-028-034-025-150700   
..NORTH FLORIDA
 
 
 
CITY SKY/WX TMP DP RH WIND PRES REMARKS  
TALL INTL ARPT FAIR 78 72 81 NE7 30.05F  
FSU LOVE BLDG N/A 77 72 83 E6 N/A  
APALACHICOLA FAIR 78 70 76 NE7 30.03S  
PERRY FAIR 77 73 90 NE6 30.04F  
CROSS CITY N/A 76 73 88 NE7 30.02F  
JACKSONVILLE FAIR 81 73 76 NE13 30.01F  

 
 
!FLZ112-006-005-002-011-150700   
..FLORIDA PANHANDLE
 
 
 
CITY SKY/WX TMP DP RH WIND PRES REMARKS  
MARIANNA FAIR 75 71 87 NE7 30.05F  
BONIFAY NOT AVBL  
PANAMA CITY NW FAIR 79 68 69 NE6 30.03F  
TYNDALL AFB FAIR 79 70 74 E7 30.03F  
TYND DRONE APT FAIR 78 70 76 E8 30.03F  
DE FUNIAK SPR FAIR 77 67 71 NE5 30.07F  
EGLIN AFB FAIR 82 68 62 NE7 30.03F  
DESTIN FAIR 82 70 66 E7 30.03F  
HURLBURT PTCLDY 82 69 64 E6 30.02F  
CRESTVIEW FAIR 76 68 76 CALM 30.07F  
PENSACOLA FAIR 81 72 74 NE6 30.04F  

 
 
!ALZ063-066-150700   
..SOUTH ALABAMA
 
 
 
CITY SKY/WX TMP DP RH WIND PRES REMARKS  
DOTHAN FAIR 76 70 82 NE3 30.12F  
OZARK CAIRNS FAIR 74 69 83 NE7 30.07F  
FT RUCKER HELI FAIR 74 70 85 CALM 30.08F  
RUCKER HELI 3 FAIR 76 69 78 NE6 30.07F  
RUCKER HELI 2 FAIR 78 70 77 NE6 30.07F  
FLORALA APT FAIR 77 67 71 NE3 30.09F  
ANDALUSIA FAIR 79 68 69 NE6 30.08F  
TROY FAIR 76 71 85 E5 30.11F  
EUFALA NOT AVBL  
MOBILE FAIR 80 71 74 E9 30.06F  

 
 
!GAZ120>161-150700   
..SOUTHWEST AND SOUTH CENTRAL GEORGIA
 
 
 
CITY SKY/WX TMP DP RH WIND PRES REMARKS  
THOMASVILLE FAIR 73 72 94 CALM 30.08F  
BAINBRIDGE FAIR 75 72 89 E5 30.07F  
MOODY AFB FAIR 73 73 100 NE5 30.06F  
VALDOSTA FAIR 75 72 90 NE7 30.06F  
MOULTRIE FAIR 73 72 94 CALM 30.08F  
BLAKELY FAIR 72 66 83 CALM 30.09F  
ALBANY FAIR 77 70 79 NE7 30.10F  
TIFTON FAIR N/A N/A N/A NE5 30.09  
FITZGERALD FAIR 75 73 91 E5 30.12F  
CORDELE FAIR 73 68 86 NE3 30.12F  
AMERICUS FAIR 77 70 78 E3 30.14S  
HOMERVILLE FAIR 72 72 100 CALM 30.07F  

 
 
!GMZ750-755-770-775-150700   
..COASTAL AND BUOY OBS
 
 
 
STATION/POSITION TIME TEMP WIND PRES VSBY WAVE  
AIR SEA DIR/SP/G HT/PER  
(UTC) (F) (DEG/KT/KT) (MB) (MI) (FT/S)  
KEATON BEACH 0600 76 30/ 6/ 8 1016.7F  
CEDAR KEY 0600 78 40/ 8/ 10 1015.8F  
C TOWER 0600 82 80/ 22/ 23 1016.5F  
APALACHICOLA BUO 0600 84 70/ 19/ 25 1016.1  
PANAMA CITY BUOY 0600 100/ 19/ 25 1015.3  
MOBILE BUOY 0600 85 40/ 10/ 12 1016.0  
ORANGE BCH AL BU 0600 86 70/ 21/ 25 1016.2  

 
 
 
CLICK HERE TO GO TO PREVIOUS BULLETINS.

The Nexlab FL Page
The Nexlab GA Page
The Nexlab AL Page Main Text Page